Regional Weather Roundup
Issued by NWS Charleston, SC

Current Version | Previous Version | Graphics & Text | Print | Product List | Glossary On
Versions: 1 2 3 4 5 6 7 8 9 10 11 12 13 14 15 16 17 18 19 20 21 22 23 24 25 26 27 28 29 30 31 32 33 34 35 36 37 38 39 40 41 42 43 44 45 46 47 48 49 50
000 ASUS42 KCHS 281513 RWRCHS REGIONAL WEATHER ROUNDUP NATIONAL WEATHER SERVICE CHARLESTON SC 1100 AM EDT SUN AUG 28 2016 NOTE: "FAIR" INDICATES FEW OR NO CLOUDS BELOW 12,000 FEET WITH NO SIGNIFICANT WEATHER AND/OR OBSTRUCTIONS TO VISIBILITY. NOT ALL STATIONS ARE QUALITY CONTROLLED. USE DATA WITH CAUTION... ESPECIALLY DEWPOINT OBSERVATIONS. SCZ027-030-031-034>040-042>050-281600- ...SOUTHEAST SOUTH CAROLINA... CITY SKY/WX TMP DP RH WIND PRES REMARKS N CHARLESTON PTSUNNY 86 73 65 N6 30.12S HX 93 WATERFRONT PRK N/A 84 76 77 NE10 30.10R HX 93 MOUNT PLEASANT PTSUNNY 86 75 70 CALM 30.12S HX 95 JOHNS ISLAND PTSUNNY 86 75 70 NE9G15 30.12S HX 95 PINOPOLIS N/A 82 75 78 NE6 30.07S MONCKS CORNER CLOUDY 82 73 74 N7 30.13F SUMMERVILLE PTSUNNY 86 75 70 NE5 30.14S HX 95 BEAUFORT MCAS PTSUNNY 86 74 67 E10 30.12S HX 94 BEAUFORT ARPT PTSUNNY 86 75 70 NE14 30.11S HX 95 HILTON HEAD IS PTSUNNY 90 75 62 E8 30.11F HX 100 WALTERBORO PTSUNNY 88 72 58 NE6 30.14F HX 94 ALLENDALE FAIR 88 72 58 VRB7 30.13S HX 94 ...SOUTHERN MIDLANDS AND PEE DEE... CITY SKY/WX TMP DP RH WIND PRES REMARKS GEORGETOWN PTSUNNY 82 73 74 NE8G16 30.14S KINGSTREE FAIR 86 70 58 NE5 30.14F HX 90 ORANGEBURG MOSUNNY 86 72 62 NE9 30.16S HX 92 BARNWELL NOT AVBL AIKEN FAIR 82 70 65 NE10 30.20S MANNING PTSUNNY 82 73 74 N7 30.15S COLUMBIA PTSUNNY 87 72 60 NE6 30.16R HX 93 SUMTER MOSUNNY 87 72 60 NE8 30.14S HX 93 FLORENCE MOSUNNY 87 72 60 E7 30.16S HX 93 MYRTLE BEACH PTSUNNY 88 70 55 NE9 30.14S HX 92 N MYRTLE BEACH PTSUNNY 86 75 69 NE8 30.13R HX 95 $$ GAZ063-065-086>088-099>101-113>116-118-119-134>141-150-281600- ...SOUTHEAST GEORGIA... CITY SKY/WX TMP DP RH WIND PRES REMARKS SAVANNAH ARPT PTSUNNY 88 72 58 NE8 30.11S HX 94 HUNTER AAF MOSUNNY 85 77 76 NE8 30.08S HX 96 FORT STEWART MOSUNNY 87 73 64 VRB5 30.08S HX 94 STATESBORO MOSUNNY 87 75 66 E6 30.13S HX 96 SYLVANIA NOT AVBL CLAXTON FAIR 87 74 65 NE9 30.12S HX 96 ...CSRA...CENTRAL AND FAR SOUTHEAST GEORGIA... CITY SKY/WX TMP DP RH WIND PRES REMARKS THOMSON PTSUNNY 87 74 66 MISG 30.21R HX 95 AUGUSTA-BUSH PTSUNNY 86 71 60 NE7 30.15R HX 91 AUGUSTA-DANIEL PTSUNNY 86 69 56 NE7 30.17R HX 90 SWAINSBORO FAIR 86 68 54 E9 30.14S VIDALIA SUNNY 88 75 66 E12G17 30.12S HX 97 EASTMAN FAIR 88 59 37 E10 30.15S HAZLEHURST PTSUNNY 88 75 67 CALM 30.10S HX 97 ALMA PTSUNNY 85 73 67 VRB5 30.09F HX 91 WAYCROSS N/A 89 77 68 E12G17 30.09F HX 100 JESUP PTSUNNY 88 77 70 E10 30.10F HX 100 BAXLEY PTSUNNY 86 77 74 E9 30.10F HX 97 BRUNSWICK CLOUDY 88 77 70 NE13 30.09S HX 100 SAINT SIMONS MOSUNNY 86 75 69 E13G21 30.09R HX 95 $$ SCZ027-028-034-036>038-045-046-048>050-GAZ119-141-281600- ...LAKE AND SUPPLEMENTAL COASTAL OBSERVATIONS... STATION/POSITION TIME TEMP WIND PRES WAVE SWELL AIR SEA DIR/SP/G HT/PER HT/PER/DIR (UTC) (F) (DEG/KT/KT) (MB) (FT/S) (FT/S/D) WINYAH BAY NOT AVBL LAKE MURRAY 1400 82 CALM / 6 1021.0R ACE BASIN NERRS NOT AVBL FORT PULASKI 1400 83 85 50/ 11/ 14 1019.9R SAPELO ISLAND 1400 86 60/ 10 1019.0R $$ ANZ835-935-AMZ111-154-330-350-352-354-370-450-454-472-281600- ...C-MAN AND BUOY OBSERVATIONS... STATION/POSITION TIME TEMP WIND PRES WAVE SWELL AIR SEA DIR/SP/G HT/PER HT/PER/DIR (UTC) (F) (DEG/KT/KT) (MB) (FT/S) (FT/S/D) BUOY 41004 1450 84 85 70/ 10/ 12 1018.8S 3/ 8 3/130/ 8 BUOY 41008 1450 82 85 60/ 14/ 17 1018.4R 4/ 9 2/110/ 9 FOLLY BEACH CMAN 1400 82 30/ 8/ 9 1020.0R CAPERS NEARSHORE 1408 82 84 40/ 14/ 17 1019.5R FRIPP NEARSHORE 1408 84 86 80/ 14/ 17 1018.9R STATION/POSITION TIME TEMP WIND PRES WAVE SWELL AIR SEA DIR/SP/G HT/PER HT/PER/DIR (UTC) (F) (DEG/KT/KT) (MB) (FT/S) (FT/S/D) 5E ST. MARYS GA 1401 85 N/A 4/ 7 FRYING PAN BUOY 1400 83 84 40/ 10/ 12 1019.3R BUOY 41025 1450 84 85 90/ 8/ 10 1020.4R 3/ 8 2/130/ 8 CAPE LOOKOUT NC 1400 82 50/ 8/ 8 1019.9R BUOY 41002 1450 83 84 70/ 10/ 12 1018.4R 3/ 9 3/110/ 9 BUOY 41010 NOT AVBL ST AUGUSTINE FL 1500 83 84 60/ 12/ 13 1018.5R $$

USA.gov is the U.S. government's official web portal to all federal, state and local government web resources and services.